HAWK-6C

Last updated on Sun Jun 21 2026 00:03:43 GMT+0000 (Coordinated Universal Time)

1 55326U 23011C 26171.46121352 .00003677 00000+0 16145-3 0 9991 2 55326 40.4987 329.8134 0002662 13.1214 346.9664 15.22954484188350
UTC large
Height (km)
Speed (km/s)
/
Latitude / Longitude
Inclination (degrees)
Orbital Period (minutes)
Azimuth
Elevation
Range (km)
Doppler Factor

Next 0 passes for location: London (51.5072 / 0.1276)

No passes found over London.
HAWK-6C